Location: Newark
(41.5175°N, 72.7122°W)
Time: 01:16:37
(UTC+00:00)

N. Korean satellite - Visible Passes

Search period start: 22 September 2020 00:00
Search period end: 02 October 2020 00:00
Orbit: 455 x 503 km, 97.2° (Epoch: 21 September)

Date Brightness Start Highest point End Pass type
(mag) Time Alt. Az. Time Alt. Az. Time Alt. Az.
22 Sep 9.0 09:49:35 10° NE 09:52:47 27° E 09:55:54 10° SSE visible
23 Sep 9.9 09:24:42 10° ENE 09:26:35 14° E 09:28:27 10° ESE visible
25 Sep 8.0 10:04:38 10° NNE 10:08:08 43° E 10:11:34 10° S visible
26 Sep 9.6 09:39:14 10° NE 09:42:00 20° E 09:44:44 10° SE visible
29 Sep 8.7 09:54:07 10° NNE 09:57:23 31° E 10:00:33 10° SSE visible
30 Sep 9.8 09:29:01 10° NE 09:31:11 15° E 09:33:19 10° SE visible
